sat.trackr.live / text

‹ back to catalog

YUNYAO-1 19

NORAD 58759 · 2024-009B

PAYLOAD ACTIVE UNKNOWN

§ Identity

Operator
Country
PRC
Launch date
2024-01-11
Launch site
YSLA
Launch vehicle
Mass (kg)
RCS (m²)

External: N2YO · Heavens-Above · Gunter

§ Orbital elements

Epoch: 2026-05-25T03:58:49.832256Z

Period
94.89 min
Inclination
49.9825°
Eccentricity
0.0005433
Mean motion
15.17517204 rev/d
Perigee alt
509.6 km
Apogee alt
517.1 km
Semi-major
6,891.5 km
B*
4.9957e-4
RAAN
280.0071°
Arg perigee
198.7724°
Mean anomaly
161.3028°
Rev number
13,117

§ Raw data

YUNYAO-1 191 58759U 24009B   26145.16585454  .00009865  00000+0  49957-3 0  99992 58759  49.9825 280.0071 0005433 198.7724 161.3028 15.17517204131171

JSON: /api/v1/satellites/58759 · /tle

For live sub-satellite position, see the globe view (requires WebGL).

§ Visibility from observer

Set your observer location to see the next 7 days of passes ≥ 10°. The values pass through the URL so the page stays shareable.

No JS? Fill the form by hand. The geolocation button needs JavaScript.